Карточка аэропорта URRP

Внимание!
Информация на этой странице в стадии наполнения.
Если вы не увидели какой-то информации, или заметили неточность - пожалуйста сообщите нам!
Спасибо!
Команда RU-STAFF
Название аэропортаПлатов
Название аэропорта (англ.)Platov
Превышение282 ft. (86 m.)
Координаты47°29.634', 39°55.482'
Высота перехода3500 ft
Эшелон переходаFL50 (QNH >= 996); FL60 (QNH < 996)
Коды ответчика1001-1017
Зона ОрВДРостов-на-Дону РПИ (URRV)
Данные METARURRP 290630Z 26005MPS 9999 SCT/// SCT017 19/16 Q1010 R23/110060 NOSIG RMK QFE750/1000
Проноз погоды (TAF)URRP 290455Z 2906/3006 25003G10MPS 6000 -SHRA SCT016 SCT020CB TX23/2912Z TN13/3002Z TEMPO 2906/2909 0800 FG BKN003 SCT020CB
NOTAMshow/hide NOTAM
AWOS   TABLE

Информация о ВПП

ВПП Длина ВПП (м.) Покрытие Курс ВПП Частота ILS
053900Цементобетон46111.5
233900Цементобетон226110.9

Диспетчерские позиции

Позывной Наименование органа УВД Частота
URRP_APPПлатов-подход128.2
URRP_DELПлатов-деливери127.1
URRP_R_APPПлатов - Круг121.2
URRP_TWRПлатов-Вышка119.7
URRP_GNDПлатов - руление119.0



Спутниковое изображение